Location: Alulod
(14.2076°N, 120.8898°E)
Time: 02:37:10
(UTC+00:00)

Cosmos 967 Rocket - Pass Details

Date: 13 December 2025
Orbit: 941 x 995 km, 65.8° (Epoch: 15 January)

Event Time Altitude Azimuth Distance (km) Brightness Sun altitude
Exits shadow 20:18:47 44° 348° (NNW) 1,331 4.9 -26.4°
Maximum altitude 20:20:59 80° 68° (ENE) 1,001 4.5 -25.9°
Drops below altitude 10° 20:27:22 10° 155° (SSE) 2,720 7.4 -24.5°
Sets 20:29:55 0° 156° (SSE) 3,659 8.1 -23.9°
